Regional Weather Roundup
Issued by NWS Upton, NY

Current Version | Previous Version | Text Only | Print | Product List | Glossary On
Versions: 1 2 3 4 5 6 7 8 9 10 11 12 13 14 15 16 17 18 19 20 21 22 23 24 25 26 27 28 29 30 31 32 33 34 35 36 37 38 39 40 41 42 43 44 45 46 47 48 49 50
000
ASUS41 KOKX 051318
RWROKX

REGIONAL WEATHER ROUNDUP
NATIONAL WEATHER SERVICE NEW YORK NY
900 AM EDT SUN JUL 05 2015

NOTE: "FAIR" INDICATES FEW OR NO CLOUDS BELOW 12,000 FEET WITH NO
SIGNIFICANT WEATHER AND/OR OBSTRUCTIONS TO VISIBILITY.

NYZ071-072-176-178-NJZ106-104-051400-
NEW YORK CITY METRO AREA


CITY           SKY/WX    TMP DP  RH WIND       PRES   REMARKS
CENTRAL PARK   MOSUNNY   72  60  66 W5        30.15R
LAGUARDIA APRT PTSUNNY   73  60  63 N3        30.12R
KENNEDY INTL   PTSUNNY   75  61  61 SW7       30.13R
NEWARK/LIBERTY PTSUNNY   73  62  68 W6        30.12R
BRNX BOT. GARD   N/A     72  61  68 SW6       30.12F
TETERBORO      MOSUNNY   73  60  63 NW5       30.11R
$$

NYZ177-179-078>081-051400-
LONG ISLAND NEW YORK

CITY           SKY/WX    TMP DP  RH WIND       PRES   REMARKS
FARMINGDALE    MOSUNNY   74  61  63 W5        30.12R
ISLIP          MOSUNNY   73  61  65 NW6       30.10R
SHIRLEY        MOSUNNY   74  61  63 NW7       30.12R
WESTHAMPTON    SUNNY     74  60  61 W8        30.13R
MONTAUK POINT    N/A     71  63  75 W7        30.12R
$$

NYZ052-065-067-051400-
HUDSON VALLEY

CITY           SKY/WX    TMP DP  RH WIND       PRES   REMARKS
WHITE PLAINS   SUNNY     70  62  76 W5        30.12R
NEWBURGH       SUNNY     66  63  88 CALM      30.14R
MONTGOMERY       N/A     70  63  78 VRB3      30.13R
POUGHKEEPSIE   MOSUNNY   67  61  81 CALM      30.13R HAZE
ALBANY         MOSUNNY   68  61  78 VRB3      30.12R
$$

NJZ001-105-106-008-010-013-015-019>022-104-051400-
NEW JERSEY

CITY           SKY/WX    TMP DP  RH WIND       PRES   REMARKS
NEWARK/LIBERTY PTSUNNY   73  62  68 W6        30.12R
TETERBORO      MOSUNNY   73  60  63 NW5       30.11R
CALDWELL       PTSUNNY   71  61  70 VRB6      30.14R
MORRISTOWN     PTSUNNY   75  66  73 NW3       30.13R
SOMERVILLE     PTSUNNY   70  63  78 CALM      30.12R
SUSSEX         PTSUNNY   67  60  78 VRB3      30.15R
ANDOVER          N/A     65  61  87 VRB6      30.16R
TRENTON        MOSUNNY   71  63  75 VRB3      30.14R
MILLVILLE      SUNNY     73  63  70 SE3       30.14R
ATLANTIC CITY  SUNNY     74  63  68 CALM      30.14R
WRIGHTSTOWN    SUNNY     74  62  66 NW6       30.12R
TOMS RIVER     SUNNY     73  57  56 CALM      30.14R
BELMAR         MOSUNNY   73  61  64 NW8       30.14R
$$

PAZ047>061-062-071-051400-
EASTERN PENNSYLVANIA

CITY           SKY/WX    TMP DP  RH WIND       PRES   REMARKS
PHILADELPHIA   PTSUNNY   74  59  59 VRB3      30.14R
ALLENTOWN      MOSUNNY   68  62  81 NW7       30.15R
SCRANTON       CLOUDY    65  60  84 W6        30.18R
$$

CTZ002-004>006-009-010-012-RIZ004-006-007-MAZ004-011-015-051400-
SOUTHERN NEW ENGLAND
 IN CT

CITY           SKY/WX    TMP DP  RH WIND       PRES   REMARKS
BRADLEY INTL   SUNNY     70  59  68 CALM      30.09R
HARTFORD       SUNNY     70  60  70 S5        30.10R
DANBURY        SUNNY     69  59  70 NW6       30.13R
WTRBRY/OXFORD  SUNNY     66  57  72 CALM      30.14R
BRIDGEPORT     MOSUNNY   73  62  68 VRB6      30.11R
MERIDEN        SUNNY     70  60  70 CALM      30.11R
NEW HAVEN      SUNNY     70  61  73 W5        30.11R
CHESTER        FAIR      72  61  68 N3        30.12R
GROTON         SUNNY     72  61  68 W6        30.10R
WILLIMANTIC    SUNNY     69  61  75 VRB3      30.10R

 IN RI

CITY           SKY/WX    TMP DP  RH WIND       PRES   REMARKS
PROVIDENCE     SUNNY     72  60  66 W7        30.09R
BLOCK ISLAND   SUNNY     70  59  68 W10       30.11R
WESTERLY       SUNNY     72  60  66 W5        30.10R

 IN MA

CITY           SKY/WX    TMP DP  RH WIND       PRES   REMARKS
BOSTON         SUNNY     71  60  68 W7        30.07R
WORCESTER      SUNNY     68  58  70 NW9       30.11R
WESTFIELD      SUNNY     68  61  78 CALM      30.10R HAZE
PROVINCETOWN   SUNNY     68  10  10 W9        30.07R
NANTUCKET      SUNNY     70  62  76 W13       30.08R
$$

ANZ330-335-338-340-345-350-353-355-051400-
COASTAL MARINE OBSERVATIONS


STATION/POSITION TIME  SKY/WX   TEMP    WIND        PRES    VSBY  WAVE
                                AIR SEA DIR/SP/G                  HT/PER
                 (UTC)          (F)     (DEG/KT/KT) (MB)    (MI)  (FT/S)
NY HARB ENTRANCE 1250            69 69  280/  6/  8 1019.6          4/ 8
4S FIRE IS       1203               70                N/A           4/ 8
20S FIRE ISLAND  1250            69 69  270/  6/  6 1019.7          4/ 8
GREAT SOUTH BAY  1200            70 74  300/  6/  6   N/A
23SW MTP         1250            68 68  260/  8/ 10 1019.5          5/ 8
HUDSON CANYON    NOT AVBL
KINGS POINT      1200            71 69   CALM  /  1 1018.6
CENTRAL LI SOUND NOT AVBL
EASTERN LI SOUND 1200            69 65  270/  4/  6   N/A
ROBBINS REEF     1200            70     280/  5/  6 1018.4
$$


>>>>>>>>>>>>>>>>>>>>>>>>>>>> KEY <<<<<<<<<<<<<<<<<<<<<<<<<<<
>                                                          <
>     SKY/WX - SKY CONDITION/PRESENT WEATHER               <
>     TMP    - TEMPERATURE IN FAHRENHEIT                   <
>     DP     - DEWPOINT IN FAHRENHEIT                      <
>     RH     - RELATIVE HUMIDITY IN PERCENT                <
>     WIND   - DIRECTION AND SPEED IN MPH                  <
>     PRES   - MEAN SEA LEVEL PRESSURE IN INCHES OF HG     <
>     WCI    - WIND CHILL INDEX                            <
>     VSB    - VISIBILITY IN MILES                         <
>     HX     - HEAT INDEX                                  <
>     TC     - TEMPERATURE IN CELSIUS                      <
>     VRB    - VARIABLE WIND DIRECTION                     <
>                                                          <
>>>>>>>>>>>>>>>>>>>>>>>>>>>> KEY <<<<<<<<<<<<<<<<<<<<<<<<<<<





USA.gov is the U.S. government's official web portal to all federal, state and local government web resources and services.